Location: La Trinit�
(48.1620°N, 3.4512°W)
Time: 02:41:31
(UTC+00:00)

Cosmos 1812 - Pass Details

Date: 08 May 2021
Orbit: 514 x 521 km, 82.5° (Epoch: 13 June)

Event Time Altitude Azimuth Distance (km) Brightness Sun altitude
Exits shadow 21:31:54 31° 145° (SE) 932 3.4 -15.6°
Maximum altitude 21:33:16 45° 94° (E) 719 3.1 -15.7°
Drops below altitude 10° 21:36:59 10° 21° (NNE) 1,769 5.8 -16.1°
Sets 21:39:11 0° 15° (NNE) 2,662 6.9 -16.3°
